timestamp,wind_dir_avg,wind_spd_avg,wind_spd_max_dir,wind_spd_gust,battery_voltage,lat,long
2022-09-26 00:04:00+00:00,230.0,10.46,228.0,11.84,12.57,47.59359,-54.27349
2022-09-26 00:14:01+00:00,231.0,10.37,228.0,11.88,12.57,47.59359,-54.27349
2022-09-26 00:24:01+00:00,235.0,10.08,239.0,11.37,12.57,47.59359,-54.27349
2022-09-26 00:34:01+00:00,232.0,10.33,232.0,12.03,12.57,47.59359,-54.27349
2022-09-26 00:44:01+00:00,233.0,10.56,234.0,12.25,12.57,47.59359,-54.27349
2022-09-26 00:54:01+00:00,228.0,10.61,234.0,12.4,12.57,47.59359,-54.27349
2022-09-26 01:04:01+00:00,231.0,10.7,230.0,12.55,12.57,47.59359,-54.27349
2022-09-26 01:14:00+00:00,231.0,10.42,232.0,12.4,12.57,47.59359,-54.27349
2022-09-26 01:24:00+00:00,228.0,10.39,229.0,12.42,12.57,47.59359,-54.27349
2022-09-26 01:34:00+00:00,228.0,10.34,229.0,12.01,12.57,47.59359,-54.27349
2022-09-26 01:44:00+00:00,234.0,10.16,232.0,11.35,12.57,47.59359,-54.27349
2022-09-26 01:54:00+00:00,230.0,10.28,230.0,12.12,12.57,47.59359,-54.27349
2022-09-26 02:04:00+00:00,236.0,9.58,235.0,11.46,12.57,47.59359,-54.27349
2022-09-26 02:14:01+00:00,233.0,9.77,233.0,10.98,12.49,47.59359,-54.27349
2022-09-26 02:24:01+00:00,231.0,9.82,236.0,11.43,12.49,47.59359,-54.27349
2022-09-26 02:34:01+00:00,235.0,9.49,239.0,11.4,12.49,47.59359,-54.27349
2022-09-26 02:44:01+00:00,233.0,9.23,239.0,10.81,12.49,47.59359,-54.27349
2022-09-26 02:54:01+00:00,235.0,7.53,243.0,10.6,12.49,47.59359,-54.27349
2022-09-26 03:04:01+00:00,227.0,7.05,230.0,10.01,12.49,47.59359,-54.27349
2022-09-26 03:14:01+00:00,230.0,8.14,239.0,10.96,12.49,47.59359,-54.27349
2022-09-26 03:24:01+00:00,232.0,8.21,244.0,10.95,12.49,47.59359,-54.27349
2022-09-26 03:34:01+00:00,226.0,6.12,239.0,9.81,12.49,47.59359,-54.27349
2022-09-26 03:44:01+00:00,235.0,9.28,238.0,10.75,12.49,47.59359,-54.27349
2022-09-26 03:54:01+00:00,229.0,6.41,242.0,8.59,12.49,47.59359,-54.27349
2022-09-26 04:04:01+00:00,236.0,8.55,243.0,11.08,12.49,47.59359,-54.27349
2022-09-26 04:14:00+00:00,230.0,5.34,241.0,7.41,12.49,47.59359,-54.27349
2022-09-26 04:24:00+00:00,238.0,6.25,244.0,8.75,12.49,47.59359,-54.27349
2022-09-26 04:34:00+00:00,232.0,5.21,232.0,6.07,12.49,47.59359,-54.27349
2022-09-26 04:44:00+00:00,232.0,5.39,236.0,7.0,12.49,47.59359,-54.27349
2022-09-26 04:54:00+00:00,226.0,5.44,238.0,7.3,12.49,47.59359,-54.27349
2022-09-26 05:04:00+00:00,234.0,7.38,243.0,10.2,12.49,47.59359,-54.27349
2022-09-26 05:14:01+00:00,235.0,9.04,238.0,10.59,12.49,47.59359,-54.27349
2022-09-26 05:24:01+00:00,239.0,8.45,242.0,10.3,12.49,47.59359,-54.27349
2022-09-26 05:34:01+00:00,238.0,8.31,244.0,10.2,12.49,47.59359,-54.27349
2022-09-26 05:44:01+00:00,235.0,9.03,239.0,10.85,12.49,47.59359,-54.27349
2022-09-26 05:54:01+00:00,234.0,8.67,239.0,10.56,12.49,47.59359,-54.27349
2022-09-26 06:04:01+00:00,233.0,9.44,238.0,10.87,12.49,47.59359,-54.27349
2022-09-26 06:14:01+00:00,236.0,9.14,241.0,10.76,12.41,47.59359,-54.27349
2022-09-26 06:24:01+00:00,232.0,9.68,238.0,11.14,12.41,47.59359,-54.27349
2022-09-26 06:34:01+00:00,231.0,8.66,237.0,10.42,12.41,47.59359,-54.27349
2022-09-26 06:44:01+00:00,230.0,8.33,236.0,9.97,12.41,47.59359,-54.27349
2022-09-26 06:54:01+00:00,226.0,9.57,228.0,11.36,12.41,47.59359,-54.27349
2022-09-26 07:04:01+00:00,226.0,9.97,232.0,12.69,12.41,47.59359,-54.27349
2022-09-26 07:14:00+00:00,227.0,11.05,229.0,13.44,12.41,47.59359,-54.27349
2022-09-26 07:24:00+00:00,226.0,11.2,227.0,13.1,12.41,47.59359,-54.27349
2022-09-26 07:34:00+00:00,224.0,10.4,229.0,13.05,12.41,47.59359,-54.27349
2022-09-26 07:44:00+00:00,228.0,11.71,229.0,12.86,12.41,47.59359,-54.27349
2022-09-26 07:54:00+00:00,227.0,12.21,229.0,13.68,12.41,47.59359,-54.27349
2022-09-26 08:04:00+00:00,225.0,10.95,230.0,13.39,12.41,47.59359,-54.27349
2022-09-26 08:14:01+00:00,228.0,10.19,232.0,11.87,12.41,47.59359,-54.27349
2022-09-26 08:24:01+00:00,227.0,11.46,230.0,13.22,12.41,47.59359,-54.27349
2022-09-26 08:34:01+00:00,228.0,10.75,231.0,12.1,12.41,47.59359,-54.27349
2022-09-26 08:44:01+00:00,226.0,9.51,230.0,11.75,12.41,47.59359,-54.27349
2022-09-26 08:54:01+00:00,224.0,9.28,231.0,11.56,12.41,47.59359,-54.27349
2022-09-26 09:04:01+00:00,222.0,8.41,231.0,10.77,12.41,47.59359,-54.27349
2022-09-26 09:14:01+00:00,222.0,8.63,232.0,11.81,12.41,47.59359,-54.27349
2022-09-26 09:24:01+00:00,222.0,9.11,231.0,11.26,12.41,47.59359,-54.27349
2022-09-26 09:34:01+00:00,226.0,9.19,233.0,11.79,12.41,47.59359,-54.27349
2022-09-26 09:44:01+00:00,228.0,9.43,232.0,11.81,12.41,47.59359,-54.27349
2022-09-26 09:54:01+00:00,227.0,9.93,231.0,11.73,12.41,47.59359,-54.27349
2022-09-26 10:04:01+00:00,226.0,9.08,230.0,11.27,12.41,47.59359,-54.27349
2022-09-26 10:14:01+00:00,221.0,8.26,229.0,9.94,12.41,47.59359,-54.27349
2022-09-26 10:24:01+00:00,221.0,8.67,231.0,11.62,12.41,47.59359,-54.27349
2022-09-26 10:34:01+00:00,226.0,9.4,230.0,11.86,12.41,47.59359,-54.27349
2022-09-26 10:44:01+00:00,227.0,10.07,229.0,12.5,12.41,47.59359,-54.27349
2022-09-26 10:54:01+00:00,227.0,10.4,231.0,12.29,12.41,47.59359,-54.27349
2022-09-26 11:04:01+00:00,227.0,10.31,228.0,12.9,12.41,47.59359,-54.27349
2022-09-26 11:14:00+00:00,228.0,8.91,233.0,11.76,13.05,47.59359,-54.27349
2022-09-26 11:24:00+00:00,227.0,9.35,232.0,11.68,13.05,47.59359,-54.27349
2022-09-26 11:34:00+00:00,230.0,10.45,233.0,12.59,13.05,47.59359,-54.27349
2022-09-26 11:44:00+00:00,234.0,9.65,241.0,12.02,13.05,47.59359,-54.27349
2022-09-26 11:54:00+00:00,238.0,8.73,242.0,11.27,13.05,47.59359,-54.27349
2022-09-26 12:04:00+00:00,232.0,6.8,239.0,9.96,13.05,47.59359,-54.27349
2022-09-26 12:14:00+00:00,235.0,8.27,242.0,10.25,13.68,47.59359,-54.27349
2022-09-26 12:24:00+00:00,229.0,6.01,236.0,7.42,13.68,47.59359,-54.27349
2022-09-26 12:34:00+00:00,231.0,7.3,237.0,9.38,13.68,47.59359,-54.27349
2022-09-26 12:44:00+00:00,237.0,7.37,237.0,10.66,13.68,47.59359,-54.27349
2022-09-26 12:54:00+00:00,238.0,9.74,244.0,11.16,13.68,47.59359,-54.27349
2022-09-26 13:04:00+00:00,241.0,9.52,242.0,11.13,13.68,47.59359,-54.27349
2022-09-26 13:14:00+00:00,253.0,6.9,253.0,7.5,14.24,47.59359,-54.27349
2022-09-26 13:24:00+00:00,247.0,7.77,254.0,10.04,14.24,47.59359,-54.27349
2022-09-26 13:34:00+00:00,228.0,9.34,233.0,12.25,14.24,47.59359,-54.27349
2022-09-26 13:44:00+00:00,225.0,9.45,231.0,11.41,14.24,47.59359,-54.27349
2022-09-26 13:54:00+00:00,226.0,10.37,229.0,12.47,14.24,47.59359,-54.27349
2022-09-26 14:04:00+00:00,227.0,11.34,228.0,13.12,14.24,47.59359,-54.27349
2022-09-26 14:14:00+00:00,230.0,10.26,232.0,12.25,14.32,47.59359,-54.27349
2022-09-26 14:24:00+00:00,228.0,9.21,233.0,12.1,14.32,47.59359,-54.27349
2022-09-26 14:34:00+00:00,235.0,10.05,236.0,11.59,14.32,47.59359,-54.27349
2022-09-26 14:44:00+00:00,241.0,9.18,243.0,11.25,14.32,47.59359,-54.27349
2022-09-26 14:54:00+00:00,230.0,7.13,245.0,10.97,14.32,47.59359,-54.27349
2022-09-26 15:04:00+00:00,243.0,8.43,247.0,10.17,14.32,47.59359,-54.27349
2022-09-26 15:14:00+00:00,230.0,11.36,232.0,12.7,14.4,47.59359,-54.27349
2022-09-26 15:24:00+00:00,227.0,11.51,228.0,13.56,14.4,47.59359,-54.27349
2022-09-26 15:34:00+00:00,222.0,8.96,232.0,12.03,14.4,47.59359,-54.27349
2022-09-26 15:44:00+00:00,219.0,9.08,229.0,10.88,14.4,47.59359,-54.27349
2022-09-26 15:54:00+00:00,225.0,9.32,230.0,11.19,14.4,47.59359,-54.27349
2022-09-26 16:04:00+00:00,227.0,8.09,239.0,10.13,14.4,47.59359,-54.27349
2022-09-26 16:14:00+00:00,225.0,7.87,228.0,8.74,13.6,47.59359,-54.27349
2022-09-26 16:24:00+00:00,221.0,6.44,226.0,7.42,13.6,47.59359,-54.27349
2022-09-26 16:34:00+00:00,228.0,8.36,232.0,9.48,13.6,47.59359,-54.27349
2022-09-26 16:44:00+00:00,222.0,8.07,227.0,9.64,13.6,47.59359,-54.27349
2022-09-26 16:54:00+00:00,221.0,7.76,229.0,10.45,13.6,47.59359,-54.27349
2022-09-26 17:04:00+00:00,234.0,6.23,224.0,8.06,13.6,47.59359,-54.27349
2022-09-26 17:14:01+00:00,246.0,5.32,245.0,6.08,13.84,47.59359,-54.27349
2022-09-26 17:24:01+00:00,225.0,6.44,236.0,7.97,13.84,47.59359,-54.27349
2022-09-26 17:34:01+00:00,218.0,8.48,228.0,10.45,13.84,47.59359,-54.27349
2022-09-26 17:44:01+00:00,217.0,6.43,220.0,7.98,13.84,47.59359,-54.27349
2022-09-26 17:54:01+00:00,212.0,6.55,213.0,7.47,13.84,47.59359,-54.27349
2022-09-26 18:04:01+00:00,215.0,6.79,213.0,7.67,13.84,47.59359,-54.27349
2022-09-26 18:14:01+00:00,213.0,6.57,220.0,7.5,14.08,47.59359,-54.27349
2022-09-26 18:24:01+00:00,210.0,7.48,210.0,8.12,14.08,47.59359,-54.27349
2022-09-26 18:34:01+00:00,200.0,8.77,204.0,9.98,14.08,47.59359,-54.27349
2022-09-26 18:44:01+00:00,195.0,8.92,194.0,9.65,14.08,47.59359,-54.27349
2022-09-26 18:54:01+00:00,199.0,9.45,202.0,10.12,14.08,47.59359,-54.27349
2022-09-26 19:04:01+00:00,197.0,9.27,197.0,10.33,14.08,47.59359,-54.27349
2022-09-26 19:14:00+00:00,197.0,9.82,198.0,11.04,13.92,47.59359,-54.27349
2022-09-26 19:24:00+00:00,207.0,10.76,209.0,12.19,13.92,47.59359,-54.27349
2022-09-26 19:34:00+00:00,224.0,8.42,225.0,9.57,13.92,47.59359,-54.27349
2022-09-26 19:44:00+00:00,218.0,8.1,220.0,9.56,13.92,47.59359,-54.27349
2022-09-26 19:54:00+00:00,217.0,9.45,219.0,10.87,13.92,47.59359,-54.27349
2022-09-26 20:04:00+00:00,219.0,7.74,219.0,8.72,13.92,47.59359,-54.27349
2022-09-26 20:14:00+00:00,209.0,8.84,209.0,9.59,13.44,47.59359,-54.27349
2022-09-26 20:24:00+00:00,199.0,10.03,202.0,11.48,13.44,47.59359,-54.27349
2022-09-26 20:34:00+00:00,199.0,10.56,205.0,11.74,13.44,47.59359,-54.27349
2022-09-26 20:44:00+00:00,199.0,11.53,203.0,12.95,13.44,47.59359,-54.27349
2022-09-26 20:54:00+00:00,199.0,11.86,200.0,13.99,13.44,47.59359,-54.27349
2022-09-26 21:04:00+00:00,197.0,10.45,199.0,12.02,13.44,47.59359,-54.27349
2022-09-26 21:14:00+00:00,197.0,9.91,198.0,11.64,12.81,47.59359,-54.27349
2022-09-26 21:24:00+00:00,193.0,9.68,200.0,11.07,12.81,47.59359,-54.27349
2022-09-26 21:34:00+00:00,194.0,9.36,197.0,10.61,12.81,47.59359,-54.27349
2022-09-26 21:44:00+00:00,195.0,9.32,197.0,10.38,12.81,47.59359,-54.27349
2022-09-26 21:54:00+00:00,195.0,8.7,197.0,9.46,12.81,47.59359,-54.27349
2022-09-26 22:04:00+00:00,195.0,8.3,202.0,9.7,12.81,47.59359,-54.27349
2022-09-26 22:14:00+00:00,216.0,6.23,220.0,7.06,12.57,47.59359,-54.27349
2022-09-26 22:24:00+00:00,247.0,3.87,259.0,4.94,12.57,47.59359,-54.27349
2022-09-26 22:34:00+00:00,211.0,3.56,198.0,4.93,12.57,47.59359,-54.27349
2022-09-26 22:44:00+00:00,194.0,8.58,193.0,9.44,12.57,47.59359,-54.27349
2022-09-26 22:54:00+00:00,195.0,9.61,202.0,11.21,12.57,47.59359,-54.27349
2022-09-26 23:04:00+00:00,195.0,8.79,201.0,10.43,12.57,47.59359,-54.27349
2022-09-26 23:14:00+00:00,197.0,10.28,203.0,11.41,12.57,47.59359,-54.27349
2022-09-26 23:24:00+00:00,188.0,9.75,207.0,11.32,12.57,47.59359,-54.27349
2022-09-26 23:34:00+00:00,195.0,9.39,201.0,10.52,12.57,47.59359,-54.27349
2022-09-26 23:44:00+00:00,190.0,10.16,200.0,11.33,12.57,47.59359,-54.27349
2022-09-26 23:54:00+00:00,195.0,11.15,198.0,12.56,12.57,47.59359,-54.27349
